"Time","Temp","Dewpoint","Humidity","Pressure","Direction","Speed","Gust","Precip","PrecipRate"
"00:04:56","44.4","42.5","93","30.31","234","0","0","0.00","0.00"
"00:09:57","44.3","42.4","93","30.31","234","0","0","0.00","0.00"
"00:14:59","44.2","42.3","93.1","30.31","234","0","0","0.00","0.00"
"00:19:57","44.1","42.5","94","30.31","234","0","0","0.00","0.00"
"00:24:58","44","42.4","94","30.31","234","0","0","0.00","0.00"
"00:29:59","43.8","42.2","94","30.31","234","0","0","0.00","0.00"
"00:34:57","43.9","42.3","94","30.31","234","0","0","0.00","0.00"
"00:39:56","43.9","42.3","94","30.31","234","0","0","0.00","0.00"
"00:44:58","43.8","42.2","94","30.31","234","0","0","0.00","0.00"
"00:49:59","43.7","42.1","94","30.31","234","0","0","0.00","0.00"
"00:54:57","43.6","42","94","30.31","234","0","0","0.00","0.00"
"00:59:59","43.6","42","94","30.31","234","0","0","0.00","0.00"
"01:04:56","43.5","41.9","94","30.31","234","0","0","0.00","0.00"
"01:09:58","43.4","41.8","94","30.31","234","0","0","0.00","0.00"
"01:14:57","43.2","41.6","94","30.31","234","0","0","0.00","0.00"
"01:19:59","43.2","41.6","94","30.31","234","0","0","0.00","0.00"
"01:24:57","43.1","41.5","94","30.31","234","0","0","0.00","0.00"
"01:29:58","42.9","41.3","94","30.31","234","0","0","0.00","0.00"
"01:34:56","42.8","41.2","94","30.31","234","0","0","0.00","0.00"
"01:39:59","42.7","41.1","94","30.31","234","0","0","0.00","0.00"
"01:44:57","42.7","41.1","94","30.31","234","0","0","0.00","0.00"
"01:49:59","42.5","40.9","94","30.31","234","0","0","0.00","0.00"
"01:54:56","42.4","40.8","94","30.31","234","0","0","0.00","0.00"
"01:59:58","42.4","41","94.7","30.31","234","0","0","0.00","0.00"
"02:04:59","42.4","41.1","95","30.31","234","0","0","0.00","0.00"
"02:09:57","42.3","40.9","94.7","30.31","234","0","0","0.00","0.00"
"02:14:57","42.3","41","95","30.31","234","0","0","0.00","0.00"
"02:19:58","42.3","41","95","30.31","234","0","0","0.00","0.00"
"02:24:56","42.2","40.9","95","30.31","234","0.1","2.4","0.00","0.00"
"02:29:57","42","40.7","95","30.32","234","1.2","2.4","0.00","0.00"
"02:34:58","42.1","40.8","95","30.32","234","0.2","1.2","0.00","0.00"
"02:39:57","42","40.7","95","30.32","234","0.1","1.2","0.00","0.00"
"02:44:59","41.9","40.6","95","30.32","234","0","0","0.00","0.00"
"02:49:56","41.9","40.6","95","30.31","234","0.1","1.2","0.00","0.00"
"02:54:58","41.8","40.5","95","30.31","234","0.2","1.2","0.00","0.00"
"02:59:59","41.8","40.5","95","30.32","234","0","1.2","0.00","0.00"
"03:04:57","41.6","40.3","95","30.32","234","0","1.2","0.00","0.00"
"03:09:59","41.5","40.2","95","30.32","234","0.3","1.2","0.00","0.00"
"03:14:58","41.5","40.2","95","30.32","234","0","0","0.00","0.00"
"03:19:59","41.5","40.2","95","30.31","234","0","0","0.00","0.00"
"03:24:57","41.3","40","95","30.31","234","0","0","0.00","0.00"
"03:29:59","41.2","39.9","95","30.31","234","0","0","0.00","0.00"
"03:34:57","41.1","39.8","95","30.31","234","0","0","0.00","0.00"
"03:39:56","41","39.7","95","30.31","234","0","0","0.00","0.00"
"03:44:57","41","39.7","95","30.31","234","0","0","0.00","0.00"
"03:49:59","41","39.7","95","30.31","234","0","0","0.00","0.00"
"03:54:56","40.9","39.6","95","30.31","234","0","0","0.00","0.00"
"03:59:58","40.8","39.5","95","30.31","234","0","0","0.00","0.00"
"04:04:59","40.8","39.5","95","30.31","234","0.1","1.2","0.00","0.00"
"04:09:57","40.7","39.4","95","30.31","234","0","0","0.00","0.00"
"04:14:56","40.6","39.3","95","30.31","234","0","0","0.00","0.00"
"04:19:57","40.5","39.2","95","30.31","234","0","0","0.00","0.00"
"04:24:58","40.4","39.1","95","30.31","234","0","0","0.00","0.00"
"04:29:59","40.4","39.1","95","30.32","234","0","0","0.00","0.00"
"04:34:56","40.4","39.1","95","30.32","234","0","0","0.00","0.00"
"04:39:59","40.4","39.1","95","30.32","234","0","0","0.00","0.00"
"04:44:56","40.3","39","95","30.32","234","0","0","0.00","0.00"
"04:49:57","40.2","38.9","95","30.32","234","0","0","0.00","0.00"
"04:54:59","40","38.7","95","30.32","234","0","0","0.00","0.00"
"04:59:57","40","38.7","95","30.32","234","0","0","0.00","0.00"
"05:04:58","39.9","38.7","95.3","30.32","234","0.7","2.4","0.00","0.00"
"05:09:56","40","38.9","95.9","30.32","234","0","1.2","0.00","0.00"
"05:14:59","39.9","38.6","95","30.32","234","0","0","0.00","0.00"
"05:19:56","39.8","38.5","95","30.32","234","0","0","0.00","0.00"
"05:24:57","39.7","38.4","95","30.32","234","0.3","1.2","0.00","0.00"
"05:29:58","39.7","38.4","95","30.33","234","0.2","1.2","0.00","0.00"
"05:34:56","39.6","38.3","95","30.33","234","0","0","0.00","0.00"
"05:39:59","39.5","38.2","95","30.33","234","0","0","0.00","0.00"
"05:44:56","39.4","38.1","95","30.33","234","0","0","0.00","0.00"
"05:49:57","39.3","38","95","30.33","234","0","0","0.00","0.00"
"05:54:58","39.2","37.9","95","30.33","234","0","0","0.00","0.00"
"05:59:59","39.2","37.9","95","30.34","234","0","0","0.00","0.00"
"06:04:56","39.1","37.8","95","30.34","234","0","0","0.00","0.00"
"06:09:59","39.1","37.8","95.2","30.34","234","0","0","0.00","0.00"
"06:14:58","39","37.9","95.7","30.34","234","0","0","0.00","0.00"
"06:19:59","39","38","96","30.34","234","0","0","0.00","0.00"
"06:24:57","39","38","96","30.34","234","0.2","1.2","0.00","0.00"
"06:29:58","39.1","38.1","96","30.35","234","0","0","0.00","0.00"
"06:34:59","39.1","38.1","96","30.35","234","0","0","0.00","0.00"
"06:39:58","39.1","38.1","96","30.35","234","0","0","0.00","0.00"
"06:44:56","39","38","96","30.35","234","0","0","0.00","0.00"
"06:49:57","38.9","37.9","96","30.35","234","0","1.2","0.00","0.00"
"06:54:58","38.9","37.9","96","30.35","234","0","1.2","0.00","0.00"
"06:59:56","38.9","37.9","96","30.35","234","0.1","1.2","0.00","0.00"
"07:04:57","39.1","38.1","96","30.35","234","0.1","1.2","0.00","0.00"
"07:09:59","39.2","38.2","96","30.35","234","0","1.2","0.00","0.00"
"07:14:58","39.1","38.1","96","30.36","234","0","0","0.00","0.00"
"07:19:56","39","38","96","30.36","234","0","0","0.00","0.00"
"07:24:57","38.9","37.9","96","30.36","234","0","0","0.00","0.00"
"07:29:58","38.9","37.9","96","30.36","234","0","0","0.00","0.00"
"07:34:55","38.9","37.9","96","30.36","234","0","0","0.00","0.00"
"07:39:59","38.9","37.9","96","30.36","234","0","0","0.00","0.00"
"07:44:56","39","38","96","30.36","234","0","0","0.00","0.00"
"07:49:57","39.1","38.1","96","30.36","234","0","0","0.00","0.00"
"07:54:58","39.4","38.6","97","30.36","234","0","0","0.00","0.00"
"07:59:56","39.6","38.8","97","30.37","234","0","0","0.00","0.00"
"08:04:57","39.7","38.9","97","30.37","234","0","0","0.00","0.00"
"08:09:59","40","39.2","97","30.37","234","0","0","0.00","0.00"
"08:14:57","40.2","39.4","97","30.37","234","0","0","0.00","0.00"
"08:19:58","40.6","39.8","97","30.37","234","0","0","0.00","0.00"
"08:24:59","41.3","40.5","97.2","30.37","234","0","0","0.00","0.00"
"08:29:59","42.2","41.7","98","30.37","234","0","0","0.00","0.00"
"08:34:56","43.3","42.8","98","30.37","234","0","0","0.00","0.00"
"08:39:59","44.1","43.6","98","30.37","234","0","0","0.00","0.00"
"08:44:59","44.8","44.3","98","30.37","234","0","2.4","0.00","0.00"
"08:49:57","45.6","45.1","98","30.37","234","0.6","3.6","0.00","0.00"
"08:54:57","46.4","45.9","98","30.37","301","1.1","4.8","0.00","0.00"
"08:59:57","47","46.2","97","30.38","311","1.4","3.6","0.00","0.00"
"09:04:58","47.7","46.2","94.9","30.38","311","0.5","3.5","0.00","0.00"
"09:09:56","48.3","46.6","93.9","30.38","311","0.7","3.6","0.00","0.00"
"09:14:58","48.9","46.8","92.1","30.38","311","0.6","3.6","0.00","0.00"
"09:19:59","49.7","47.1","90.7","30.38","311","0.2","1.2","0.00","0.00"
"09:24:59","50.4","47.3","89","30.38","311","1.5","3.6","0.00","0.00"
"09:29:56","51.3","47.9","88.2","30.38","311","0.6","3.5","0.00","0.00"
"09:34:57","52.1","48.5","87.7","30.38","311","0.2","1.2","0.00","0.00"
"09:39:56","52.9","49.1","87.2","30.38","311","0.1","1.2","0.00","0.00"
"09:44:56","53.6","49.1","84.6","30.38","311","0.5","3.6","0.00","0.00"
"09:49:57","54.4","48.5","80.4","30.38","311","2","3.6","0.00","0.00"
"09:54:58","55","48.8","79.6","30.38","311","1.5","4.8","0.00","0.00"
"09:59:58","55.9","49.7","79.8","30.38","311","0.2","2.4","0.00","0.00"
"10:04:59","57.2","50.9","79.5","30.38","311","0.1","1.2","0.00","0.00"
"10:09:58","58.6","51.4","76.8","30.38","311","0","0","0.00","0.00"
"10:14:56","59.4","51.7","75.5","30.38","311","0","0","0.00","0.00"
"10:19:57","59.8","52","75.3","30.38","311","0","0","0.00","0.00"
"10:24:58","60.3","51.8","73.7","30.38","277","0.9","2.4","0.00","0.00"
"10:29:59","60.7","51.9","72.8","30.38","277","1.3","2.4","0.00","0.00"
"10:34:57","61.2","51.6","70.9","30.38","276","1.3","3.6","0.00","0.00"
"10:39:59","61.8","51.7","69.7","30.38","271","0.9","3.6","0.00","0.00"
"10:44:56","62.5","52.3","69.3","30.38","199","1.9","3.6","0.00","0.00"
"10:49:57","62.9","51.4","66.1","30.38","178","1.9","4.8","0.00","0.00"
"10:54:58","63.1","51","64.5","30.38","178","1.8","3.6","0.00","0.00"
"10:59:56","63.8","52.5","66.6","30.38","178","1.2","3.6","0.00","0.00"
"11:04:57","64.6","53","66.1","30.38","177","0.9","3.6","0.00","0.00"
"11:09:59","65.2","52.9","64.6","30.38","177","0.8","3.6","0.00","0.00"
"11:14:58","65.7","52.9","63.4","30.38","177","1.4","3.6","0.00","0.00"
"11:19:59","66.3","52.7","61.5","30.38","177","1.1","3.6","0.00","0.00"
"11:24:56","66.8","52.3","59.7","30.38","177","0.9","2.4","0.00","0.00"
"11:29:57","67.2","53.2","60.7","30.38","177","0.7","3.6","0.00","0.00"
"11:34:58","67.6","52.2","57.8","30.38","177","1.2","3.6","0.00","0.00"
"11:39:57","67.9","52.3","57.4","30.38","177","1.1","3.6","0.00","0.00"
"11:44:58","68.1","52.2","56.6","30.38","177","1.6","3.6","0.00","0.00"
"11:49:59","68.3","52","56","30.38","177","0.3","1.2","0.00","0.00"
"11:54:56","68.8","52.8","56.8","30.38","177","1.3","4.8","0.00","0.00"
"11:59:57","69","51","52.6","30.38","177","1.9","4.6","0.00","0.00"
"12:04:58","69.3","50.4","51","30.37","177","2.2","6","0.00","0.00"
"12:09:56","69.7","51.3","52.1","30.37","178","0.9","3.6","0.00","0.00"
"12:14:59","70.2","52.2","52.8","30.37","178","1.1","3.6","0.00","0.00"
"12:19:56","70.5","51.9","51.7","30.37","178","2.5","4.8","0.00","0.00"
"12:24:57","70.6","51.5","50.9","30.37","178","1.2","4.8","0.00","0.00"
"12:29:58","70.8","50.4","48.4","30.37","150","3.1","10.8","0.00","0.00"
"12:34:59","70.8","50.9","49.4","30.36","194","2.7","10.4","0.00","0.00"
"12:39:58","70.8","49.7","47.2","30.36","121","1.6","6","0.00","0.00"
"12:44:59","71","50.9","49.1","30.36","188","2.5","7.2","0.00","0.00"
"12:49:56","71.3","50.1","47.1","30.36","213","3.4","6.9","0.00","0.00"
"12:54:57","71.2","50.1","47.2","30.36","240","2.7","7.2","0.00","0.00"
"12:59:57","71.1","50.7","48.5","30.36","191","2.6","7.2","0.00","0.00"
"13:04:58","71.5","50.7","47.9","30.35","134","0.9","4.6","0.00","0.00"
"13:09:57","71.8","50.7","47.4","30.35","183","3.5","7.2","0.00","0.00"
"13:14:56","71.9","49.9","46","30.35","194","2.8","6","0.00","0.00"
"13:19:57","71.7","50.5","47.3","30.35","195","0.5","2.3","0.00","0.00"
"13:24:58","71.8","49.8","45.8","30.35","175","2.5","7.2","0.00","0.00"
"13:29:56","72.1","51","47.4","30.35","177","3","7.2","0.00","0.00"
"13:34:57","72.3","50.2","45.8","30.34","169","2.9","6","0.00","0.00"
"13:39:56","72.3","50.2","45.7","30.34","184","3.6","10.8","0.00","0.00"
"13:44:58","72.4","48.9","43.4","30.34","215","3","7.2","0.00","0.00"
"13:49:59","72.5","49.2","43.9","30.33","211","3.1","6","0.00","0.00"
"13:54:56","72.7","49.8","44.6","30.33","220","2.9","7.2","0.00","0.00"
"13:59:58","73.2","51.1","46","30.33","215","2.8","7.2","0.00","0.00"
"14:04:59","73.4","49.4","42.8","30.33","195","4.3","8.4","0.00","0.00"
"14:09:57","73.3","49.3","42.8","30.33","204","3.8","8.4","0.00","0.00"
"14:14:56","73.2","49.7","43.4","30.33","215","3.2","6","0.00","0.00"
"14:19:58","73.4","50.1","44","30.32","211","1.1","3.6","0.00","0.00"
"14:24:59","73.9","50.1","43.3","30.32","152","2.3","6","0.00","0.00"
"14:29:56","73.8","50.2","43.5","30.32","217","3.4","8.4","0.00","0.00"
"14:34:58","73.8","50.3","43.8","30.31","174","2.7","6.9","0.00","0.00"
"14:39:56","74","50.7","44.1","30.31","169","2.1","6","0.00","0.00"
"14:44:57","74.3","50.1","42.6","30.31","177","4","8.4","0.00","0.00"
"14:49:58","74.1","48.3","40.2","30.31","212","4.2","7.2","0.00","0.00"
"14:54:56","73.9","48.6","40.9","30.31","241","2.6","7.2","0.00","0.00"
"14:59:57","73.9","49.9","42.8","30.31","253","3.1","6.9","0.00","0.00"
"15:04:58","74","50.4","43.6","30.30","191","2.8","7.2","0.00","0.00"
"15:09:56","74.1","49.4","41.8","30.30","196","4.2","8.4","0.00","0.00"
"15:14:59","74.1","50","42.7","30.31","216","2","6","0.00","0.00"
"15:19:57","74.4","49.5","41.6","30.31","171","3.3","6","0.00","0.00"
"15:24:58","74.4","48.3","39.7","30.31","205","3.9","10.8","0.00","0.00"
"15:29:59","74.3","48.8","40.6","30.31","194","3","6.9","0.00","0.00"
"15:34:56","74.3","50.3","42.9","30.30","188","1.3","4.6","0.00","0.00"
"15:39:59","74.2","50.7","43.7","30.30","186","2.6","8.4","0.00","0.00"
"15:44:56","74.3","49.3","41.3","30.30","200","4","10.8","0.00","0.00"
"15:49:58","74.2","49","41.1","30.30","159","3.1","7.2","0.00","0.00"
"15:54:59","73.7","49.1","42.1","30.30","163","3.1","7.2","0.00","0.00"
"15:59:57","73","49.3","43.2","30.30","156","3.4","7.2","0.00","0.00"
"16:04:57","73.2","49","42.5","30.30","171","3","6","0.00","0.00"
"16:09:59","73.4","48.5","41.4","30.30","139","2.4","8.4","0.00","0.00"
"16:14:58","73.3","48.5","41.5","30.30","123","2.4","8.1","0.00","0.00"
"16:19:59","73.5","49.7","43.1","30.29","133","2.6","4.8","0.00","0.00"
"16:24:57","74","49.7","42.4","30.29","143","2.4","8.4","0.00","0.00"
"16:29:58","74.5","49.5","41.4","30.29","182","4","8.1","0.00","0.00"
"16:34:56","74.4","49.5","41.6","30.29","217","3.5","7.2","0.00","0.00"
"16:39:56","74.1","48.4","40.3","30.29","190","2.4","6","0.00","0.00"
"16:44:57","74","48.6","40.8","30.29","176","3","6","0.00","0.00"
"16:49:57","74","48.9","41.2","30.29","196","3.6","7.2","0.00","0.00"
"16:54:59","73.7","48.6","41.1","30.29","183","4.1","8.4","0.00","0.00"
"16:59:56","73.5","48.9","41.9","30.29","180","3.2","6","0.00","0.00"
"17:04:57","73.5","48.2","40.7","30.28","192","4.1","7.2","0.00","0.00"
"17:09:59","73.2","48.2","41.2","30.28","226","3.3","7.2","0.00","0.00"
"17:14:58","73","48.3","41.6","30.28","163","3.4","8.4","0.00","0.00"
"17:19:56","72.9","48.1","41.4","30.28","173","3.5","8.1","0.00","0.00"
"17:24:57","72.7","48","41.5","30.28","175","2.2","4.8","0.00","0.00"
"17:29:59","72.5","48","41.8","30.28","184","2.8","6","0.00","0.00"
"17:34:59","72.1","47.5","41.7","30.27","177","3.7","8.4","0.00","0.00"
"17:39:57","71.5","47.8","43","30.27","184","2.3","6","0.00","0.00"
"17:44:58","71.1","48","43.9","30.27","172","2.5","6","0.00","0.00"
"17:49:56","70.5","47.8","44.4","30.27","173","1.5","3.6","0.00","0.00"
"17:54:57","70.2","48.1","45.5","30.27","173","1.6","3.6","0.00","0.00"
"17:59:58","69.8","48.1","45.9","30.27","173","1.8","4.8","0.00","0.00"
"18:04:59","69.4","47.9","46.4","30.27","173","1.9","3.6","0.00","0.00"
"18:09:56","69","48.3","47.8","30.27","173","1.4","2.4","0.00","0.00"
"18:14:56","68.5","48.5","48.7","30.27","173","1.5","4.8","0.00","0.00"
"18:19:57","68.1","47.8","48.3","30.27","174","1.6","3.6","0.00","0.00"
"18:24:56","67.7","47.8","49","30.27","174","0.6","2.4","0.00","0.00"
"18:29:58","67.3","48","50","30.28","174","0.2","1.2","0.00","0.00"
"18:34:56","66.9","48.1","50.9","30.28","174","0.4","2.4","0.00","0.00"
"18:39:55","66.4","48.2","52","30.28","174","1.4","3.6","0.00","0.00"
"18:44:57","65.7","48.5","53.9","30.28","174","0.8","2.4","0.00","0.00"
"18:49:59","64.7","48.9","56.6","30.28","174","0.6","2.4","0.00","0.00"
"18:54:56","63.7","49.1","59","30.28","174","0","1.2","0.00","0.00"
"18:59:57","62.7","48.8","60.4","30.28","174","0","0","0.00","0.00"
"19:04:59","61.8","48.6","61.8","30.28","174","0","0","0.00","0.00"
"19:09:57","60.9","49.1","65","30.28","174","0","0","0.00","0.00"
"19:14:56","60.1","48.5","65.6","30.28","174","0","0","0.00","0.00"
"19:19:58","59.4","48.8","68.1","30.28","174","0","0","0.00","0.00"
"19:24:59","58.8","49.1","70.2","30.28","174","0","0","0.00","0.00"
"19:29:57","58.2","49","71.6","30.29","174","0","0","0.00","0.00"
"19:34:58","57.6","48.7","72.2","30.29","174","0","0","0.00","0.00"
"19:39:57","57.1","48.8","73.7","30.29","174","0","0","0.00","0.00"
"19:44:59","56.7","48.8","74.7","30.29","174","0","0","0.00","0.00"
"19:49:56","56.2","48.7","75.8","30.29","174","0","0","0.00","0.00"
"19:54:57","55.8","48.7","77.1","30.29","174","0","0","0.00","0.00"
"19:59:59","55.3","48.6","78","30.29","174","0","0","0.00","0.00"
"20:04:56","55","48.5","78.7","30.29","174","0","0","0.00","0.00"
"20:09:58","54.6","48.6","80.1","30.29","174","0","0","0.00","0.00"
"20:14:57","54.2","48.5","81","30.29","174","0","0","0.00","0.00"
"20:19:58","53.9","48.3","81.4","30.29","174","0","0","0.00","0.00"
"20:24:59","53.5","48.3","82.5","30.29","174","0","0","0.00","0.00"
"20:29:57","53.3","48.3","83","30.29","174","0","0","0.00","0.00"
"20:34:58","53","48.3","84","30.29","174","0","0","0.00","0.00"
"20:39:58","52.8","48.3","84.6","30.29","174","0","0","0.00","0.00"
"20:44:59","52.6","48.2","85","30.29","174","0","0","0.00","0.00"
"20:49:56","52.5","48.1","85","30.29","174","0","0","0.00","0.00"
"20:54:58","52.2","47.8","85","30.29","174","0","0","0.00","0.00"
"20:59:59","51.9","47.7","85.8","30.29","174","0","0","0.00","0.00"
"21:04:56","51.6","47.8","86.6","30.29","174","0","0","0.00","0.00"
"21:09:58","51.4","47.7","87","30.29","174","0","0","0.00","0.00"
"21:14:58","51.2","47.5","87","30.29","174","0","0","0.00","0.00"
"21:19:59","50.9","47.2","87.2","30.29","174","0","0","0.00","0.00"
"21:24:56","50.6","47.1","87.5","30.29","174","0","0","0.00","0.00"
"21:29:57","50.5","47.2","88.3","30.30","174","0","0","0.00","0.00"
"21:34:59","50.3","47.2","89","30.30","174","0","0","0.00","0.00"
"21:39:58","50.2","47.1","89","30.30","174","0","0","0.00","0.00"
"21:44:56","50","46.9","89","30.30","174","0","0","0.00","0.00"
"21:49:57","49.9","46.9","89.4","30.30","174","0","0","0.00","0.00"
"21:54:58","49.7","46.9","90","30.30","174","0","0","0.00","0.00"
"21:59:56","49.6","46.9","90.2","30.30","174","0","0","0.00","0.00"
"22:04:57","49.6","46.8","90","30.30","174","0","0","0.00","0.00"
"22:09:59","49.6","46.8","90","30.30","174","0","0","0.00","0.00"
"22:14:59","49.6","46.8","90","30.30","174","0","0","0.00","0.00"
"22:19:56","49.4","46.6","90","30.30","174","0","0","0.00","0.00"
"22:24:57","49.2","46.4","90","30.30","174","0","0","0.00","0.00"
"22:29:59","49","46.2","90","30.30","174","0","0","0.00","0.00"
"22:34:56","48.8","46","90.2","30.30","174","0","0","0.00","0.00"
"22:39:59","48.6","46.1","91","30.30","174","0","0","0.00","0.00"
"22:44:56","48.6","46.1","91","30.30","174","0","0","0.00","0.00"
"22:49:57","48.4","45.9","91","30.30","174","0","0","0.00","0.00"
"22:54:59","48.3","45.8","91.1","30.30","174","0","0","0.00","0.00"
"22:59:57","48.2","46","92","30.30","174","0","0","0.00","0.00"
"23:04:58","48.2","45.9","91.8","30.30","174","0","0","0.00","0.00"
"23:09:56","48","45.5","91","30.30","174","0","0","0.00","0.00"
"23:14:56","47.9","45.5","91.5","30.30","174","0","0","0.00","0.00"
"23:19:57","47.7","45.5","92","30.29","174","0","0","0.00","0.00"
"23:24:58","47.6","45.4","92","30.29","174","0","0","0.00","0.00"
"23:29:56","47.5","45.3","92","30.29","174","0","1.2","0.00","0.00"
"23:34:57","47.4","45.3","92.3","30.29","174","0","0","0.00","0.00"
"23:39:56","47.4","45.4","92.7","30.29","174","0","0","0.00","0.00"
"23:44:57","47.4","45.4","92.8","30.29","174","0","0","0.00","0.00"
"23:49:58","47.2","45","92","30.29","174","0","0","0.00","0.00"
"23:54:59","47.1","44.9","92","30.29","174","0","0","0.00","0.00"
